Powrót do katalogu

SPOT 3

AktywnyNaukaSSO
NORAD 22823·PAYLOAD·🇫🇷 France

Wystrzelony Sep 26, 1993 z Guiana Space Centre

Loading…

Następne Przeloty (najbliższe 24 godziny)

TLE

ŚwieżeSource: Space-Track

Epoka: Sep 14, 2026, 13:55 UTC

1 22823U 93061A   26257.58019224  .00000060  00000-0  49004-4 0  9996
2 22823  98.8484 321.6629 0016406 350.0251  10.0597 14.20111356707260

Śledź SPOT 3 w czasie rzeczywistym z AllMySat

Download on the App Store